| time (UTC) | temp C | wind direction | speed KPH | gust KPH | rain 1hr cm | rain 24hr cm | rain mn cm | humidity % | barometer mb |
| 20260507041558 | 6 | 292 | 1.6 | 6.4 | 0.00 | 0.00 | 0.00 | 89 | 1014.9 |
| 20260507040555 | 6 | 0 | 0.0 | 6.4 | 0.00 | 0.00 | 0.00 | 89 | 1014.9 |
| 20260507035552 | 6 | 322 | 1.6 | 3.2 | 0.00 | 0.00 | 0.00 | 89 | 1014.8 |
| 20260507034550 | 6 | 357 | 1.6 | 3.2 | 0.00 | 0.00 | 0.00 | 89 | 1014.9 |
| 20260507033547 | 6 | 6 | 1.6 | 3.2 | 0.00 | 0.00 | 0.00 | 89 | 1014.8 |
| 20260507032545 | 6 | 24 | 1.6 | 6.4 | 0.00 | 0.00 | 0.00 | 89 | 1014.6 |
| 20260507031542 | 6 | 2 | 1.6 | 6.4 | 0.00 | 0.00 | 0.00 | 88 | 1014.5 |
| 20260507030540 | 6 | 0 | 1.6 | 9.7 | 0.00 | 0.00 | 0.00 | 88 | 1014.4 |
| 20260507025537 | 7 | 354 | 1.6 | 6.4 | 0.00 | 0.00 | 0.00 | 88 | 1014.6 |
| 20260507024535 | 7 | 5 | 1.6 | 6.4 | 0.00 | 0.00 | 0.00 | 88 | 1014.4 |
| 20260507023532 | 7 | 345 | 1.6 | 9.7 | 0.00 | 0.00 | 0.00 | 88 | 1014.4 |
| 20260507022529 | 7 | 357 | 1.6 | 6.4 | 0.00 | 0.00 | 0.00 | 87 | 1014.4 |
| 20260507021527 | 7 | 0 | 1.6 | 3.2 | 0.00 | 0.00 | 0.00 | 87 | 1014.2 |
| 20260507020524 | 7 | 7 | 3.2 | 6.4 | 0.00 | 0.00 | 0.00 | 87 | 1014.1 |
| 20260507015522 | 7 | 320 | 0.0 | 6.4 | 0.00 | 0.00 | 0.00 | 87 | 1014.1 |
| 20260507014519 | 7 | 1 | 0.0 | 6.4 | 0.00 | 0.00 | 0.00 | 87 | 1014.0 |
| 20260507013516 | 8 | 11 | 0.0 | 3.2 | 0.00 | 0.00 | 0.00 | 86 | 1014.0 |
| 20260507012614 | 8 | 309 | 0.0 | 3.2 | 0.00 | 0.00 | 0.00 | 85 | 1014.0 |
| 20260507011612 | 8 | 0 | 0.0 | 3.2 | 0.00 | 0.00 | 0.00 | 85 | 1013.9 |
| 20260507010609 | 8 | 7 | 1.6 | 6.4 | 0.00 | 0.00 | 0.00 | 85 | 1014.0 |
| 20260507005606 | 8 | 342 | 1.6 | 6.4 | 0.00 | 0.00 | 0.00 | 85 | 1013.8 |
| 20260507004604 | 8 | 0 | 1.6 | 6.4 | 0.00 | 0.00 | 0.00 | 85 | 1013.7 |
| 20260507003601 | 8 | 45 | 0.0 | 3.2 | 0.00 | 0.00 | 0.00 | 85 | 1013.9 |
| 20260507002559 | 8 | 352 | 0.0 | 3.2 | 0.00 | 0.00 | 0.00 | 85 | 1013.7 |
| 20260507001556 | 8 | 315 | 0.0 | 3.2 | 0.00 | 0.00 | 0.00 | 85 | 1013.7 |
| 20260507000554 | 8 | 0.0 | 3.2 | 0.00 | 0.00 | 0.00 | 85 | 1013.7 | |
| 20260506235551 | 8 | 349 | 0.0 | 6.4 | 0.00 | 0.00 | 0.00 | 85 | 1013.6 |
| 20260506234548 | 8 | 342 | 1.6 | 6.4 | 0.00 | 0.00 | 0.00 | 85 | 1013.7 |
| 20260506233546 | 8 | 330 | 0.0 | 3.2 | 0.00 | 0.00 | 0.00 | 85 | 1013.5 |
| 20260506232543 | 8 | 0.0 | 3.2 | 0.00 | 0.00 | 0.00 | 84 | 1013.5 | |
| 20260506231541 | 8 | 0.0 | 3.2 | 0.00 | 0.00 | 0.00 | 83 | 1013.4 | |
| 20260506230538 | 9 | 0 | 0.0 | 3.2 | 0.00 | 0.00 | 0.00 | 83 | 1013.4 |
| 20260506225536 | 9 | 338 | 1.6 | 3.2 | 0.00 | 0.00 | 0.00 | 82 | 1013.3 |
| 20260506224533 | 9 | 314 | 1.6 | 3.2 | 0.00 | 0.00 | 0.00 | 82 | 1013.3 |
| 20260506223530 | 9 | 0.0 | 3.2 | 0.00 | 0.00 | 0.00 | 82 | 1013.3 | |
| 20260506222528 | 9 | 0 | 0.0 | 6.4 | 0.00 | 0.00 | 0.00 | 83 | 1013.2 |
| 20260506221525 | 9 | 0.0 | 0.0 | 0.00 | 0.00 | 0.00 | 83 | 1013.3 | |
| 20260506220523 | 9 | 23 | 0.0 | 3.2 | 0.00 | 0.00 | 0.00 | 83 | 1013.3 |
| 20260506215520 | 9 | 320 | 0.0 | 6.4 | 0.00 | 0.00 | 0.00 | 83 | 1013.2 |
| 20260506214518 | 9 | 16 | 1.6 | 3.2 | 0.00 | 0.00 | 0.00 | 84 | 1013.2 |
| 20260506213515 | 9 | 338 | 0.0 | 3.2 | 0.00 | 0.00 | 0.00 | 85 | 1013.1 |
| 20260506212613 | 8 | 343 | 0.0 | 3.2 | 0.00 | 0.00 | 0.00 | 86 | 1013.2 |
| 20260506211610 | 8 | 315 | 0.0 | 3.2 | 0.00 | 0.00 | 0.00 | 86 | 1013.2 |
| 20260506210608 | 8 | 338 | 0.0 | 3.2 | 0.00 | 0.00 | 0.00 | 86 | 1013.2 |
| 20260506205605 | 8 | 344 | 1.6 | 6.4 | 0.00 | 0.00 | 0.00 | 86 | 1013.1 |
| 20260506204602 | 8 | 315 | 0.0 | 3.2 | 0.00 | 0.00 | 0.00 | 86 | 1013.1 |
| 20260506203600 | 8 | 0.0 | 0.0 | 0.00 | 0.00 | 0.00 | 85 | 1013.1 | |
| 20260506202557 | 8 | 315 | 0.0 | 3.2 | 0.00 | 0.00 | 0.00 | 85 | 1013.1 |
| 20260506201555 | 8 | 0.0 | 0.0 | 0.00 | 0.00 | 0.00 | 84 | 1012.9 | |
| 20260506200552 | 8 | 0.0 | 0.0 | 0.00 | 0.00 | 0.00 | 83 | 1012.8 | |
| 20260506195550 | 8 | 0.0 | 0.0 | 0.00 | 0.00 | 0.00 | 82 | 1012.7 | |
| 20260506194547 | 9 | 0.0 | 0.0 | 0.00 | 0.00 | 0.00 | 81 | 1012.6 | |
| 20260506193544 | 9 | 23 | 1.6 | 6.4 | 0.00 | 0.00 | 0.00 | 81 | 1012.6 |
| 20260506192542 | 9 | 23 | 1.6 | 6.4 | 0.00 | 0.00 | 0.00 | 81 | 1012.4 |
| 20260506191539 | -17 | 0.0 | 0.0 | 0.00 | 0.00 | 0.00 | 1012.4 | ||
| 20260506190537 | 9 | 0.0 | 3.2 | 0.00 | 0.00 | 0.00 | 80 | 1012.2 | |
| 20260506185534 | 9 | 14 | 3.2 | 6.4 | 0.00 | 0.00 | 0.00 | 79 | 1012.1 |
| 20260506184532 | 9 | 6 | 1.6 | 6.4 | 0.00 | 0.00 | 0.00 | 79 | 1012.0 |
| 20260506183529 | 9 | 31 | 3.2 | 9.7 | 0.00 | 0.00 | 0.00 | 80 | 1012.1 |
| 20260506182527 | 9 | 23 | 6.4 | 11.3 | 0.00 | 0.00 | 0.00 | 80 | 1011.9 |
| 20260506181524 | 9 | 20 | 4.8 | 9.7 | 0.00 | 0.00 | 0.00 | 80 | 1011.8 |
| 20260506180521 | 9 | 29 | 4.8 | 14.5 | 0.00 | 0.00 | 0.00 | 80 | 1011.7 |
| 20260506175519 | 9 | 37 | 9.7 | 22.5 | 0.00 | 0.00 | 0.00 | 79 | 1011.5 |
| 20260506174516 | 9 | 41 | 8.0 | 22.5 | 0.00 | 0.00 | 0.00 | 81 | 1011.4 |
| 20260506173614 | 9 | 29 | 8.0 | 17.7 | 0.00 | 0.00 | 0.00 | 82 | 1011.3 |
| 20260506172611 | 9 | 31 | 4.8 | 11.3 | 0.00 | 0.00 | 0.00 | 84 | 1011.1 |
| 20260506171609 | 9 | 48 | 8.0 | 17.7 | 0.00 | 0.00 | 0.00 | 85 | 1011.2 |
| 20260506170606 | 9 | 21 | 4.8 | 17.7 | 0.00 | 0.00 | 0.00 | 86 | 1011.1 |
| 20260506165604 | 9 | 4 | 1.6 | 9.7 | 0.00 | 0.00 | 0.00 | 87 | 1011.0 |
| 20260506164601 | 9 | 13 | 3.2 | 11.3 | 0.00 | 0.00 | 0.00 | 87 | 1011.1 |
| 20260506163558 | 9 | 11 | 1.6 | 3.2 | 0.00 | 0.00 | 0.00 | 89 | 1011.0 |
| 20260506162556 | 8 | 29 | 3.2 | 9.7 | 0.00 | 0.00 | 0.00 | 90 | 1010.9 |
| 20260506161553 | 8 | 19 | 1.6 | 6.4 | 0.00 | 0.00 | 0.00 | 90 | 1010.9 |
| 20260506160551 | 8 | 0 | 4.8 | 12.9 | 0.00 | 0.00 | 0.00 | 89 | 1010.9 |
| 20260506155548 | 9 | 0 | 1.6 | 6.4 | 0.00 | 0.00 | 0.00 | 88 | 1010.9 |
| 20260506154546 | 9 | 11 | 3.2 | 14.5 | 0.00 | 0.00 | 0.00 | 87 | 1010.9 |
| 20260506153543 | 9 | 349 | 1.6 | 6.4 | 0.00 | 0.00 | 0.00 | 87 | 1010.9 |
| 20260506152540 | 9 | 16 | 1.6 | 9.7 | 0.00 | 0.00 | 0.00 | 87 | 1010.9 |
| 20260506151538 | 9 | 12 | 4.8 | 14.5 | 0.00 | 0.00 | 0.00 | 88 | 1010.8 |
| 20260506150535 | 9 | 49 | 6.4 | 17.7 | 0.00 | 0.00 | 0.00 | 88 | 1010.7 |
| 20260506145533 | 8 | 10 | 4.8 | 14.5 | 0.00 | 0.00 | 0.00 | 89 | 1010.6 |
| 20260506144530 | 8 | 21 | 4.8 | 14.5 | 0.00 | 0.00 | 0.00 | 91 | 1010.5 |
| 20260506143528 | 8 | 10 | 1.6 | 6.4 | 0.00 | 0.00 | 0.00 | 91 | 1010.6 |
| 20260506142525 | 8 | 25 | 3.2 | 9.7 | 0.00 | 0.00 | 0.00 | 91 | 1010.5 |
| 20260506141523 | 8 | 14 | 1.6 | 6.4 | 0.00 | 0.00 | 0.00 | 91 | 1010.5 |
| 20260506140520 | 8 | 10 | 3.2 | 11.3 | 0.00 | 0.00 | 0.00 | 91 | 1010.6 |
| 20260506135517 | 8 | 0 | 3.2 | 9.7 | 0.00 | 0.00 | 0.00 | 92 | 1010.5 |
| 20260506134615 | 8 | 1 | 1.6 | 6.4 | 0.00 | 0.00 | 0.00 | 92 | 1010.4 |
| 20260506133612 | 8 | 13 | 1.6 | 9.7 | 0.00 | 0.00 | 0.00 | 91 | 1010.6 |
| 20260506132610 | 8 | 16 | 3.2 | 12.9 | 0.00 | 0.00 | 0.00 | 91 | 1010.4 |
| 20260506131607 | 8 | 341 | 3.2 | 11.3 | 0.00 | 0.00 | 0.00 | 91 | 1010.4 |
| 20260506130604 | 8 | 13 | 3.2 | 12.9 | 0.00 | 0.00 | 0.00 | 90 | 1010.3 |
| 20260506125602 | 8 | 14 | 4.8 | 9.7 | 0.00 | 0.00 | 0.00 | 90 | 1010.2 |
| 20260506124559 | 8 | 26 | 4.8 | 11.3 | 0.00 | 0.00 | 0.00 | 91 | 1010.2 |
| 20260506123618 | 8 | 347 | 6.4 | 12.9 | 0.00 | 0.00 | 0.00 | 91 | 1010.2 |
| 20260506122554 | 8 | 27 | 3.2 | 11.3 | 0.00 | 0.00 | 0.00 | 91 | 1010.1 |
| 20260506121552 | 8 | 21 | 4.8 | 11.3 | 0.00 | 0.00 | 0.00 | 90 | 1010.1 |
| 20260506120549 | 8 | 16 | 6.4 | 17.7 | 0.00 | 0.00 | 0.00 | 90 | 1010.0 |
| 20260506115546 | 8 | 21 | 8.0 | 17.7 | 0.00 | 0.00 | 0.00 | 90 | 1010.0 |
| 20260506114544 | 8 | 8 | 9.7 | 25.7 | 0.00 | 0.00 | 0.00 | 91 | 1009.8 |
| 20260506113541 | 8 | 12 | 4.8 | 11.3 | 0.00 | 0.00 | 0.00 | 91 | 1009.9 |
| 20260506112539 | 8 | 18 | 4.8 | 12.9 | 0.00 | 0.00 | 0.00 | 90 | 1009.8 |
| 20260506111536 | 8 | 19 | 9.7 | 20.9 | 0.00 | 0.00 | 0.00 | 90 | 1009.8 |
| 20260506110534 | 8 | 29 | 9.7 | 20.9 | 0.00 | 0.00 | 0.00 | 90 | 1009.9 |
| 20260506105531 | 8 | 42 | 8.0 | 17.7 | 0.00 | 0.00 | 0.00 | 90 | 1009.8 |
| 20260506104529 | 8 | 41 | 8.0 | 22.5 | 0.00 | 0.00 | 0.00 | 90 | 1009.8 |
| 20260506103526 | 8 | 26 | 3.2 | 14.5 | 0.00 | 0.00 | 0.00 | 90 | 1009.8 |
| 20260506102523 | 8 | 15 | 4.8 | 14.5 | 0.00 | 0.00 | 0.00 | 90 | 1009.6 |
| 20260506101521 | 8 | 359 | 6.4 | 12.9 | 0.00 | 0.00 | 0.00 | 90 | 1009.5 |
| 20260506100518 | 8 | 19 | 8.0 | 17.7 | 0.00 | 0.00 | 0.00 | 90 | 1009.4 |
| 20260506095516 | 8 | 34 | 8.0 | 20.9 | 0.00 | 0.00 | 0.00 | 91 | 1009.4 |
| 20260506094613 | 8 | 19 | 8.0 | 17.7 | 0.00 | 0.00 | 0.00 | 91 | 1009.3 |
| 20260506093611 | 7 | 24 | 6.4 | 17.7 | 0.00 | 0.00 | 0.00 | 91 | 1009.3 |
| 20260506092608 | 7 | 53 | 6.4 | 20.9 | 0.00 | 0.00 | 0.00 | 91 | 1009.3 |
| 20260506091606 | 7 | 29 | 6.4 | 20.9 | 0.00 | 0.00 | 0.00 | 92 | 1009.2 |
| 20260506090603 | 7 | 43 | 8.0 | 24.1 | 0.00 | 0.00 | 0.00 | 93 | 1009.1 |
| 20260506085600 | 7 | 26 | 8.0 | 24.1 | 0.00 | 0.00 | 0.00 | 94 | 1009.1 |
| 20260506084557 | 7 | 4 | 6.4 | 12.9 | 0.00 | 0.00 | 0.00 | 94 | 1009.0 |
| 20260506083555 | 7 | 30 | 11.3 | 25.7 | 0.00 | 0.00 | 0.00 | 95 | 1009.0 |
| 20260506082552 | 7 | 359 | 9.7 | 24.1 | 0.00 | 0.00 | 0.00 | 95 | 1008.9 |
| 20260506081550 | 8 | 22 | 6.4 | 17.7 | 0.00 | 0.00 | 0.00 | 95 | 1008.9 |
| 20260506080547 | 8 | 15 | 4.8 | 17.7 | 0.00 | 0.00 | 0.00 | 95 | 1008.8 |
| 20260506072537 | 8 | 15 | 6.4 | 17.7 | 0.00 | 0.00 | 0.00 | 96 | 1008.5 |
| 20260506071534 | 8 | 12 | 4.8 | 11.3 | 0.00 | 0.00 | 0.00 | 96 | 1008.4 |
| 20260506070531 | 8 | 4 | 1.6 | 9.7 | 0.00 | 0.00 | 0.00 | 96 | 1008.4 |
| 20260506061519 | 8 | 2 | 1.6 | 14.5 | 0.00 | 0.00 | 0.00 | 96 | 1008.2 |
| 20260506060516 | 8 | 5 | 1.6 | 6.4 | 0.00 | 0.00 | 0.00 | 96 | 1008.2 |
| 20260506050601 | 8 | 19 | 3.2 | 11.3 | 0.00 | 0.00 | 0.00 | 95 | 1008.2 |
| 20260506044556 | 8 | 9 | 3.2 | 14.5 | 0.00 | 0.00 | 0.00 | 96 | 1008.1 |
| 20260506043553 | 8 | 14 | 1.6 | 6.4 | 0.00 | 0.00 | 0.00 | 95 | 1008.1 |
| 20260506042551 | 8 | 358 | 4.8 | 14.5 | 0.00 | 0.00 | 0.00 | 95 | 1008.1 |